[TLELIST] Archives

 

Current TLEs

August 23rd 2007 PDT

HST 1 20580U 90037B 07233.93363913 +.00000280 +00000-0 +88819-5 0 09568 2 20580 028.4673 121.3905 0003661 079.3872 280.7126 15.00270328749846 ISS (ZARYA) 1 25544U 98067A 07235.27841633 .00014873 00000-0 96725-4 0 8378 2 25544 051.6365 117.5717 0008104 278.8893 185.1326 15.76179685501361 CXO 1 25867U 99040B 07233.70833333 .00000206 00000-0 00000+0 0 1028 2 25867 062.2153 087.8712 6325267 282.9799 350.6867 00.37804478 2502 ____________________________________________________________________ These 2-Line ...Continue Reading

Current TLEs

August 22nd 2007 PDT

HST 1 20580U 90037B 07234.13321072 .00000292 00000-0 97414-5 0 9431 2 20580 028.4673 120.0883 0003706 081.6831 278.4180 15.00270474749877 ISS (ZARYA) 1 25544U 98067A 07234.50947021 .00011449 00000-0 75515-4 0 8326 2 25544 051.6346 121.5307 0008095 275.7685 142.1518 15.76155285501247 CXO 1 25867U 99040B 07233.70833333 .00000206 00000-0 00000+0 0 1028 2 25867 062.2153 087.8712 6325267 282.9799 350.6867 00.37804478 2502 ____________________________________________________________________ These 2-Line ...Continue Reading

Current TLEs

August 21st 2007 PDT

HST 1 20580U 90037B 07232.86925643 .00000315 00000-0 11608-4 0 9428 2 20580 028.4673 128.3310 0003635 068.1657 291.9318 15.00270315749686 ISS (ZARYA) 1 25544U 98067A 07233.31264010 .00020566 00000-0 13229-3 0 8260 2 25544 051.6341 127.6978 0008110 267.9034 194.5058 15.76142771501057 CXO 1 25867U 99040B 07233.70833333 .00000206 00000-0 00000+0 0 1028 2 25867 062.2153 087.8712 6325267 282.9799 350.6867 00.37804478 2502 ____________________________________________________________________ These 2-Line ...Continue Reading

Current TLEs

August 20th 2007 PDT

HST 1 20580U 90037B 07230.94006224 +.00000293 +00000-0 +98275-5 0 09522 2 20580 028.4676 140.9123 0003472 047.1081 312.9791 15.00269565749390 ISS (ZARYA) 1 25544U 98067A 07232.54443350 .00026579 00000-0 16981-3 0 8202 2 25544 051.6337 131.6551 0007909 266.0008 154.6314 15.76122310500935 CXO 1 25867U 99040B 07231.08333333 .00000177 00000-0 00000+0 0 1018 2 25867 062.2020 087.9113 6320105 283.0390 353.2869 00.37804514 2496 ____________________________________________________________________ These 2-Line ...Continue Reading

Current TLEs

August 19th 2007 PDT

HST 1 20580U 90037B 07231.13963402 .00000339 00000-0 13443-4 0 9416 2 20580 028.4673 139.6085 0003605 049.8065 310.2840 15.00269936749420 ISS (ZARYA) 1 25544U 98067A 07231.34738624 -.00017018 00000-0 -10283-3 0 8119 2 25544 051.6329 137.8213 0008073 260.9650 203.1201 15.76039501500741 CXO 1 25867U 99040B 07231.08333333 .00000177 00000-0 00000+0 0 1018 2 25867 062.2020 087.9113 6320105 283.0390 353.2869 00.37804514 2496 ____________________________________________________________________ These 2-Line ...Continue Reading

Current TLEs

August 18th 2007 PDT

HST 1 20580U 90037B 07229.87567862 .00000284 00000-0 91865-5 0 9407 2 20580 028.4677 147.8542 0003353 034.4765 325.6048 15.00269257749235 ISS (ZARYA) 1 25544U 98067A 07230.14974214 .00008661 00000-0 58202-4 0 8063 2 25544 051.6348 143.9897 0008083 257.3095 246.8001 15.76135290500555 CXO 1 25867U 99040B 07231.08333333 .00000177 00000-0 00000+0 0 1018 2 25867 062.2020 087.9113 6320105 283.0390 353.2869 00.37804514 2496 ____________________________________________________________________ These 2-Line ...Continue Reading

Current TLEs

August 17th 2007 PDT

HST 1 20580U 90037B 07227.94648248 +.00000276 +00000-0 +85368-5 0 09414 2 20580 028.4677 160.4348 0003370 012.6051 347.4621 15.00268722748947 ISS (ZARYA) 1 25544U 98067A 07229.38193485 .00011384 00000-0 75212-4 0 8000 2 25544 051.6357 147.9462 0008066 254.0324 210.5466 15.76124306500433 CXO 1 25867U 99040B 07228.41666667 .00000154 00000-0 00000+0 0 1004 2 25867 062.1876 087.9542 6316305 283.1001 350.1941 00.37804887 2486 ____________________________________________________________________ These 2-Line ...Continue Reading

Current TLEs

August 16th 2007 PDT

HST 1 20580U 90037B 07228.21257861 .00000269 00000-0 79869-5 0 9390 2 20580 028.4677 158.6993 0003362 015.8431 344.2262 15.00268743748983 ISS (ZARYA) 1 25544U 98067A 07228.36625197 .00000148 00000-0 50721-5 0 7955 2 25544 051.6340 153.1805 0007770 250.6259 207.0537 15.76087264500278 CXO 1 25867U 99040B 07228.41666667 .00000154 00000-0 00000+0 0 1004 2 25867 062.1876 087.9542 6316305 283.1001 350.1941 00.37804887 2486 ____________________________________________________________________ These 2-Line ...Continue Reading

Current TLEs

August 15th 2007 PDT

HST 1 20580U 90037B 07227.14819393 .00000291 00000-0 96821-5 0 9386 2 20580 028.4676 165.6394 0003355 003.8797 356.1820 15.00268622748820 ISS (ZARYA) 1 25544U 98067A 07227.41641324 -.00026659 00000-0 -16338-3 0 7850 2 25544 051.6319 158.0743 0008380 244.4126 220.3240 15.76068289500120 CXO 1 25867U 99040B 07225.79166667 .00000120 00000-0 00000+0 0 997 2 25867 062.1781 088.0161 6312897 283.1495 352.7776 00.37803636 2473 ____________________________________________________________________ These 2-Line ...Continue Reading

Current TLEs

August 14th 2007 PDT

HST 1 20580U 90037B 07225.88423711 .00000308 00000-0 11053-4 0 9371 2 20580 028.4677 173.8821 0003336 349.6197 010.4328 15.00268422748631 ISS (ZARYA) 1 25544U 98067A 07226.40106601 .00010782 00000-0 70990-4 0 7787 2 25544 051.6337 163.3001 0008277 241.4349 218.1650 15.76275229499968 CXO 1 25867U 99040B 07225.79166667 .00000120 00000-0 00000+0 0 997 2 25867 062.1781 088.0161 6312897 283.1495 352.7776 00.37803636 2473 ____________________________________________________________________ These 2-Line ...Continue Reading
  • This mailing list is a public mailing list - anyone may join or leave, at any time.
  • This mailing list is announce-only.

International Space Station (ISS) / Hubble Space Telescope (HST) / Chandra X-Ray Observatory Orbital Data via EMAIL

Privacy Policy:

Private list